FLI401 EKVG-EGPH

Flight info

Callsign FLI401
Flight time 1h 21m
Altitude 31000
Route ODEVA DCT NALAN DCT LAGAV/N0419F240 N560 FOYLE DCT STIRA
Aircraft RJ1H/M-SDFGIRWY/LB1

Departure

Time 2026-04-22 18:41
Airport Vágar Airport (EKVG)

Arrival

Time 2026-04-22 20:03
Airport Edinburgh Airport (EGPH)
Time Latitude Longitude Altitude Speed Heading
2026-04-22 17:56 62.06730 -7.28137 278 ft 0 kts 72°
2026-04-22 18:35 62.06730 -7.28136 278 ft 1 kts 72°
2026-04-22 18:35 62.06729 -7.28110 305 ft 3 kts 106°
2026-04-22 18:35 62.06702 -7.28085 266 ft 6 kts 180°
2026-04-22 18:35 62.06664 -7.28085 278 ft 5 kts 180°
2026-04-22 18:36 62.06619 -7.28085 278 ft 8 kts 180°
2026-04-22 18:36 62.06565 -7.28098 278 ft 0 kts 192°
2026-04-22 18:37 62.06562 -7.28099 278 ft 3 kts 192°
2026-04-22 18:37 62.06500 -7.28145 280 ft 10 kts 201°
2026-04-22 18:38 62.06451 -7.28092 280 ft 10 kts 121°
2026-04-22 18:38 62.06416 -7.27950 282 ft 14 kts 118°
2026-04-22 18:38 62.06354 -7.27705 286 ft 23 kts 117°
2026-04-22 18:39 62.06163 -7.26934 270 ft 33 kts 118°
2026-04-22 18:39 62.06064 -7.26535 256 ft 25 kts 118°
2026-04-22 18:39 62.05977 -7.26182 244 ft 21 kts 117°
2026-04-22 18:39 62.05951 -7.26012 240 ft 7 kts 115°
2026-04-22 18:40 62.05928 -7.26044 240 ft 8 kts 310°
2026-04-22 18:40 62.05957 -7.26103 241 ft 0 kts 300°
2026-04-22 18:40 62.05958 -7.26107 242 ft 2 kts 298°
2026-04-22 18:41 62.06063 -7.26532 256 ft 76 kts 298°
2026-04-22 18:41 62.06424 -7.27973 477 ft 127 kts 298°
2026-04-22 18:41 62.06816 -7.29583 1369 ft 120 kts 296°
2026-04-22 18:41 62.07168 -7.31230 2087 ft 127 kts 289°
2026-04-22 18:42 62.07514 -7.32987 2586 ft 134 kts 289°
2026-04-22 18:42 62.07885 -7.34928 2913 ft 153 kts 288°
2026-04-22 18:42 62.08247 -7.37232 3199 ft 175 kts 285°
2026-04-22 18:42 62.08641 -7.39936 3225 ft 211 kts 285°
2026-04-22 18:43 62.09099 -7.43089 3585 ft 232 kts 285°
2026-04-22 18:43 62.09413 -7.46551 3997 ft 245 kts 265°
2026-04-22 18:43 62.09144 -7.50217 4457 ft 255 kts 259°
2026-04-22 18:43 62.08833 -7.53984 5034 ft 260 kts 255°
2026-04-22 18:44 62.07935 -7.57292 5600 ft 263 kts 220°
2026-04-22 18:44 62.06300 -7.58941 6250 ft 263 kts 192°
2026-04-22 18:44 62.04490 -7.59706 6957 ft 266 kts 191°
2026-04-22 18:44 62.02667 -7.60522 7691 ft 269 kts 191°
2026-04-22 18:45 62.00823 -7.61319 8465 ft 270 kts 189°
2026-04-22 18:45 61.98967 -7.60956 9250 ft 273 kts 157°
2026-04-22 18:45 61.97494 -7.58421 10079 ft 279 kts 128°
2026-04-22 18:45 61.96415 -7.54957 10898 ft 282 kts 124°
2026-04-22 18:46 61.95422 -7.51371 11573 ft 292 kts 113°
2026-04-22 18:46 61.94991 -7.46969 12033 ft 309 kts 98°
2026-04-22 18:46 61.94759 -7.42324 12461 ft 322 kts 97°
2026-04-22 18:46 61.94540 -7.37621 13046 ft 326 kts 97°
2026-04-22 18:47 61.94336 -7.32735 13708 ft 329 kts 96°
2026-04-22 18:47 61.94136 -7.27893 14325 ft 331 kts 97°
2026-04-22 18:47 61.93917 -7.23010 14858 ft 332 kts 97°
2026-04-22 18:47 61.93679 -7.18121 15321 ft 335 kts 98°
2026-04-22 18:48 61.93427 -7.13189 15821 ft 336 kts 99°
2026-04-22 18:48 61.93156 -7.08246 16328 ft 338 kts 99°
2026-04-22 18:48 61.92888 -7.03344 16824 ft 339 kts 99°
2026-04-22 18:48 61.92614 -6.98355 17321 ft 341 kts 99°
2026-04-22 18:49 61.92342 -6.93338 17808 ft 343 kts 99°
2026-04-22 18:49 61.92048 -6.88292 18289 ft 344 kts 100°
2026-04-22 18:49 61.91745 -6.83242 18768 ft 346 kts 100°
2026-04-22 18:49 61.91449 -6.78172 19202 ft 347 kts 100°
2026-04-22 18:50 61.91163 -6.73070 19653 ft 347 kts 100°
2026-04-22 18:50 61.90859 -6.67987 20098 ft 347 kts 101°
2026-04-22 18:50 61.90152 -6.63151 20485 ft 342 kts 123°
2026-04-22 18:50 61.88511 -6.59584 20898 ft 341 kts 147°
2026-04-22 18:51 61.86363 -6.57418 21288 ft 344 kts 156°
2026-04-22 18:51 61.84116 -6.55636 21686 ft 346 kts 159°
2026-04-22 18:51 61.81825 -6.54037 22084 ft 347 kts 160°
2026-04-22 18:51 61.79512 -6.52533 22476 ft 349 kts 160°
2026-04-22 18:52 61.77183 -6.51053 22868 ft 350 kts 160°
2026-04-22 18:52 61.75631 -6.50050 23111 ft 352 kts 160°
2026-04-22 18:52 61.73287 -6.48496 23493 ft 353 kts 160°
2026-04-22 18:52 61.70935 -6.46939 23865 ft 355 kts 160°
2026-04-22 18:53 61.67810 -6.44860 24321 ft 356 kts 159°
2026-04-22 18:53 61.65448 -6.43241 24647 ft 356 kts 159°
2026-04-22 18:53 61.63853 -6.42145 24864 ft 357 kts 159°
2026-04-22 18:53 61.61520 -6.40536 25145 ft 358 kts 159°
2026-04-22 18:54 61.59136 -6.38920 25464 ft 358 kts 159°
2026-04-22 18:54 61.56772 -6.37324 25856 ft 356 kts 159°
2026-04-22 18:54 61.54415 -6.35731 26260 ft 354 kts 159°
2026-04-22 18:54 61.52074 -6.34152 26617 ft 352 kts 159°
2026-04-22 18:55 61.49744 -6.32584 27007 ft 350 kts 159°
2026-04-22 18:55 61.47426 -6.31032 27383 ft 349 kts 159°
2026-04-22 18:55 61.45122 -6.29491 27763 ft 347 kts 159°
2026-04-22 18:55 61.42821 -6.27963 28135 ft 345 kts 159°
2026-04-22 18:56 61.40532 -6.26444 28506 ft 344 kts 159°
2026-04-22 18:56 61.38257 -6.24944 28867 ft 342 kts 159°
2026-04-22 18:56 61.35989 -6.23450 29225 ft 341 kts 159°
2026-04-22 18:56 61.33733 -6.21971 29577 ft 339 kts 159°
2026-04-22 18:57 61.31520 -6.20501 29921 ft 338 kts 159°
2026-04-22 18:57 61.29280 -6.19006 30274 ft 336 kts 159°
2026-04-22 18:57 61.27051 -6.17533 30614 ft 335 kts 159°
2026-04-22 18:57 61.24833 -6.16061 30864 ft 335 kts 159°
2026-04-22 18:58 61.20301 -6.13100 30971 ft 345 kts 159°
2026-04-22 18:58 61.18041 -6.11623 31336 ft 332 kts 159°
2026-04-22 18:58 61.15836 -6.10159 31485 ft 334 kts 159°
2026-04-22 18:59 61.11439 -6.07291 31536 ft 328 kts 159°
2026-04-22 18:59 61.07016 -6.04402 31552 ft 339 kts 159°
2026-04-22 19:00 61.02487 -6.01461 31561 ft 347 kts 159°
2026-04-22 19:00 60.97848 -5.98619 31556 ft 349 kts 162°
2026-04-22 19:01 60.93117 -5.96259 31558 ft 350 kts 163°
2026-04-22 19:01 60.88366 -5.94001 31568 ft 351 kts 163°
2026-04-22 19:02 60.83609 -5.91741 31554 ft 351 kts 163°
2026-04-22 19:02 60.78863 -5.89412 31550 ft 350 kts 163°
2026-04-22 19:03 60.74113 -5.87096 31551 ft 351 kts 163°
2026-04-22 19:03 60.69355 -5.84790 31551 ft 352 kts 163°
2026-04-22 19:04 60.64597 -5.82480 31554 ft 352 kts 163°
2026-04-22 19:04 60.59856 -5.80164 31562 ft 355 kts 163°
2026-04-22 19:05 60.55034 -5.77816 31556 ft 356 kts 163°
2026-04-22 19:05 60.50207 -5.75492 31547 ft 356 kts 163°
2026-04-22 19:06 60.45384 -5.73180 31551 ft 356 kts 163°
2026-04-22 19:07 60.38138 -5.69730 31546 ft 357 kts 163°
2026-04-22 19:07 60.33303 -5.67432 31566 ft 358 kts 164°
2026-04-22 19:08 60.28408 -5.65108 31551 ft 364 kts 165°
2026-04-22 19:08 60.23464 -5.62799 31547 ft 364 kts 165°
2026-04-22 19:09 60.18553 -5.60512 31549 ft 364 kts 165°
2026-04-22 19:09 60.13611 -5.58216 31546 ft 364 kts 165°
2026-04-22 19:10 60.08680 -5.55934 31547 ft 364 kts 165°
2026-04-22 19:10 60.03725 -5.53635 31550 ft 368 kts 165°
2026-04-22 19:11 59.98690 -5.51311 31545 ft 373 kts 166°
2026-04-22 19:11 59.93633 -5.48998 31545 ft 373 kts 166°
2026-04-22 19:12 59.88581 -5.46700 31541 ft 372 kts 166°
2026-04-22 19:12 59.83526 -5.44365 31543 ft 372 kts 166°
2026-04-22 19:13 59.78475 -5.42051 31542 ft 373 kts 165°
2026-04-22 19:13 59.73398 -5.39683 31544 ft 378 kts 166°
2026-04-22 19:14 59.68259 -5.37364 31542 ft 379 kts 166°
2026-04-22 19:14 59.63124 -5.35030 31537 ft 379 kts 166°
2026-04-22 19:15 59.58851 -5.33092 31545 ft 379 kts 166°
2026-04-22 19:15 59.52837 -5.30375 31544 ft 379 kts 166°
2026-04-22 19:16 59.47724 -5.28063 31535 ft 381 kts 167°
2026-04-22 19:16 59.42483 -5.25729 31542 ft 385 kts 168°
2026-04-22 19:17 59.37300 -5.23396 31540 ft 384 kts 167°
2026-04-22 19:17 59.32078 -5.21082 31538 ft 384 kts 167°
2026-04-22 19:18 59.26867 -5.18766 31539 ft 384 kts 168°
2026-04-22 19:18 59.21647 -5.16445 31539 ft 384 kts 168°
2026-04-22 19:19 59.16393 -5.14118 31536 ft 390 kts 169°
2026-04-22 19:19 59.11094 -5.11810 31532 ft 390 kts 169°
2026-04-22 19:20 59.05837 -5.09533 31531 ft 385 kts 168°
2026-04-22 19:20 59.00627 -5.07260 31528 ft 387 kts 168°
2026-04-22 19:21 58.95378 -5.04965 31527 ft 386 kts 168°
2026-04-22 19:21 58.90123 -5.02629 31521 ft 392 kts 169°
2026-04-22 19:22 58.84778 -5.00302 31525 ft 394 kts 170°
2026-04-22 19:22 58.79421 -4.98003 31527 ft 394 kts 170°
2026-04-22 19:23 58.74058 -4.95715 31528 ft 395 kts 170°
2026-04-22 19:23 58.68687 -4.93407 31522 ft 395 kts 169°
2026-04-22 19:24 58.63324 -4.91098 31524 ft 395 kts 170°
2026-04-22 19:24 58.57994 -4.88831 31525 ft 395 kts 170°
2026-04-22 19:25 58.53494 -4.86924 31521 ft 395 kts 170°
2026-04-22 19:25 58.47265 -4.84286 31517 ft 394 kts 170°
2026-04-22 19:26 58.41907 -4.82022 31528 ft 394 kts 170°
2026-04-22 19:26 58.36539 -4.79735 31506 ft 397 kts 171°
2026-04-22 19:27 58.31122 -4.77398 31512 ft 400 kts 172°
2026-04-22 19:27 58.25685 -4.75156 31519 ft 400 kts 172°
2026-04-22 19:28 58.20257 -4.72868 31513 ft 400 kts 172°
2026-04-22 19:28 58.14820 -4.70630 31518 ft 400 kts 172°
2026-04-22 19:29 58.09416 -4.68353 31510 ft 402 kts 173°
2026-04-22 19:29 58.03934 -4.66042 31518 ft 404 kts 173°
2026-04-22 19:30 57.99338 -4.64124 31528 ft 403 kts 173°
2026-04-22 19:30 57.92955 -4.61524 31524 ft 403 kts 173°
2026-04-22 19:31 57.87468 -4.59268 31530 ft 404 kts 173°
2026-04-22 19:31 57.81975 -4.57004 31534 ft 404 kts 174°
2026-04-22 19:32 57.76475 -4.54812 31513 ft 404 kts 174°
2026-04-22 19:32 57.71014 -4.52611 31528 ft 404 kts 173°
2026-04-22 19:33 57.65526 -4.50382 31523 ft 403 kts 174°
2026-04-22 19:33 57.60026 -4.48154 31524 ft 404 kts 174°
2026-04-22 19:34 57.54526 -4.45948 31510 ft 404 kts 174°
2026-04-22 19:34 57.49031 -4.43739 31515 ft 404 kts 174°
2026-04-22 19:35 57.43532 -4.41526 31519 ft 404 kts 174°
2026-04-22 19:35 57.38948 -4.39718 31523 ft 404 kts 174°
2026-04-22 19:36 57.32531 -4.37159 31520 ft 403 kts 174°
2026-04-22 19:36 57.27959 -4.35351 31505 ft 405 kts 173°
2026-04-22 19:37 57.21543 -4.32798 31520 ft 406 kts 173°
2026-04-22 19:37 57.16928 -4.30958 31513 ft 405 kts 173°
2026-04-22 19:38 57.11420 -4.28768 31508 ft 405 kts 174°
2026-04-22 19:38 57.05900 -4.26629 31505 ft 405 kts 174°
2026-04-22 19:39 57.00393 -4.24475 31501 ft 404 kts 174°
2026-04-22 19:39 56.94886 -4.22355 31517 ft 404 kts 173°
2026-04-22 19:40 56.89401 -4.20764 31535 ft 398 kts 183°
2026-04-22 19:40 56.83919 -4.21315 31524 ft 392 kts 192°
2026-04-22 19:41 56.78521 -4.22686 31516 ft 391 kts 193°
2026-04-22 19:41 56.73142 -4.24137 31515 ft 391 kts 193°
2026-04-22 19:42 56.67731 -4.25502 31295 ft 393 kts 192°
2026-04-22 19:42 56.65008 -4.26136 30878 ft 395 kts 192°
2026-04-22 19:42 56.62285 -4.26791 30208 ft 391 kts 192°
2026-04-22 19:42 56.59585 -4.27454 29422 ft 392 kts 192°
2026-04-22 19:43 56.54153 -4.28755 27860 ft 398 kts 192°
2026-04-22 19:43 56.51399 -4.29427 27085 ft 400 kts 191°
2026-04-22 19:43 56.48631 -4.30091 26328 ft 402 kts 191°
2026-04-22 19:44 56.45849 -4.30758 25603 ft 405 kts 190°
2026-04-22 19:44 56.43054 -4.31401 24876 ft 401 kts 190°
2026-04-22 19:44 56.40258 -4.32049 24174 ft 407 kts 189°
2026-04-22 19:44 56.37455 -4.32714 23347 ft 405 kts 189°
2026-04-22 19:45 56.34739 -4.33370 22518 ft 375 kts 189°
2026-04-22 19:45 56.32205 -4.33950 21686 ft 365 kts 189°
2026-04-22 19:45 56.29714 -4.34525 20891 ft 357 kts 188°
2026-04-22 19:45 56.27260 -4.35109 20125 ft 354 kts 188°
2026-04-22 19:46 56.24832 -4.35704 19376 ft 350 kts 188°
2026-04-22 19:46 56.22433 -4.36272 18616 ft 339 kts 187°
2026-04-22 19:46 56.20085 -4.36821 17765 ft 335 kts 185°
2026-04-22 19:46 56.17793 -4.36441 16955 ft 329 kts 161°
2026-04-22 19:47 56.15860 -4.34241 16175 ft 335 kts 136°
2026-04-22 19:47 56.14660 -4.30718 15415 ft 331 kts 111°
2026-04-22 19:47 56.14205 -4.26685 14661 ft 335 kts 99°
2026-04-22 19:47 56.13993 -4.22551 13859 ft 327 kts 97°
2026-04-22 19:48 56.13896 -4.18472 13015 ft 327 kts 95°
2026-04-22 19:48 56.13850 -4.14445 12197 ft 319 kts 95°
2026-04-22 19:48 56.13430 -4.10575 11376 ft 313 kts 117°
2026-04-22 19:48 56.12047 -4.07548 10598 ft 316 kts 144°
2026-04-22 19:49 56.10066 -4.06032 9774 ft 311 kts 170°
2026-04-22 19:49 56.07952 -4.05990 8970 ft 306 kts 181°
2026-04-22 19:49 56.06063 -4.06202 8664 ft 247 kts 181°
2026-04-22 19:49 56.04360 -4.06456 8531 ft 243 kts 182°
2026-04-22 19:50 56.02682 -4.06754 8499 ft 241 kts 184°
2026-04-22 19:50 56.01010 -4.07086 8482 ft 240 kts 184°
2026-04-22 19:50 55.99355 -4.07440 8500 ft 240 kts 184°
2026-04-22 19:50 55.97672 -4.07791 8412 ft 245 kts 182°
2026-04-22 19:51 55.96014 -4.07490 8106 ft 237 kts 155°
2026-04-22 19:51 55.94570 -4.06129 7815 ft 231 kts 150°
2026-04-22 19:51 55.93263 -4.04868 7512 ft 206 kts 150°
2026-04-22 19:51 55.92003 -4.03629 7192 ft 205 kts 150°
2026-04-22 19:52 55.90756 -4.02379 6896 ft 206 kts 149°
2026-04-22 19:52 55.89510 -4.01117 6568 ft 204 kts 149°
2026-04-22 19:52 55.88297 -3.99886 6251 ft 204 kts 149°
2026-04-22 19:52 55.87057 -3.98618 5941 ft 206 kts 149°
2026-04-22 19:53 55.85845 -3.97385 5585 ft 193 kts 149°
2026-04-22 19:53 55.84666 -3.96193 5234 ft 196 kts 149°
2026-04-22 19:53 55.83486 -3.95002 4859 ft 192 kts 149°
2026-04-22 19:53 55.82335 -3.93846 4476 ft 191 kts 147°
2026-04-22 19:54 55.81488 -3.92083 4178 ft 189 kts 110°
2026-04-22 19:54 55.81394 -3.89886 4072 ft 170 kts 91°
2026-04-22 19:54 55.81430 -3.87795 4047 ft 172 kts 90°
2026-04-22 19:54 55.81487 -3.85642 4039 ft 174 kts 90°
2026-04-22 19:55 55.81563 -3.83501 4030 ft 174 kts 89°
2026-04-22 19:55 55.81655 -3.81354 4039 ft 174 kts 89°
2026-04-22 19:55 55.81753 -3.79200 4027 ft 176 kts 89°
2026-04-22 19:55 55.82076 -3.77126 4007 ft 179 kts 71°
2026-04-22 19:56 55.82573 -3.75096 4001 ft 179 kts 70°
2026-04-22 19:56 55.83082 -3.73076 4010 ft 179 kts 70°
2026-04-22 19:56 55.83614 -3.71073 4018 ft 180 kts 68°
2026-04-22 19:56 55.84195 -3.69097 4029 ft 180 kts 66°
2026-04-22 19:57 55.84813 -3.67156 3917 ft 181 kts 64°
2026-04-22 19:57 55.85441 -3.65324 3664 ft 163 kts 63°
2026-04-22 19:57 55.86021 -3.63637 3429 ft 158 kts 64°
2026-04-22 19:57 55.86589 -3.61980 3235 ft 156 kts 63°
2026-04-22 19:58 55.87146 -3.60355 3026 ft 152 kts 63°
2026-04-22 19:58 55.87689 -3.58751 2821 ft 151 kts 63°
2026-04-22 19:58 55.88212 -3.57216 2608 ft 137 kts 63°
2026-04-22 19:58 55.88687 -3.55828 2429 ft 129 kts 63°
2026-04-22 19:59 55.89148 -3.54462 2235 ft 127 kts 62°
2026-04-22 20:00 55.91714 -3.46929 1215 ft 100 kts 63°
2026-04-22 20:00 55.92078 -3.45861 1052 ft 100 kts 60°
2026-04-22 20:01 55.92430 -3.44830 947 ft 99 kts 59°
2026-04-22 20:01 55.92802 -3.43736 817 ft 104 kts 59°
2026-04-22 20:01 55.93186 -3.42614 669 ft 107 kts 60°
2026-04-22 20:01 55.93573 -3.41482 504 ft 105 kts 60°
2026-04-22 20:02 55.93937 -3.40397 364 ft 100 kts 57°
2026-04-22 20:02 55.94302 -3.39326 237 ft 102 kts 60°
2026-04-22 20:02 55.94662 -3.38245 120 ft 95 kts 59°
2026-04-22 20:02 55.94953 -3.37383 107 ft 61 kts 59°
2026-04-22 20:03 55.95117 -3.36901 109 ft 39 kts 58°
2026-04-22 20:03 55.95238 -3.36543 104 ft 29 kts 59°
2026-04-22 20:03 55.95214 -3.36374 102 ft 12 kts 149°
2026-04-22 20:03 55.95178 -3.36336 103 ft 0 kts 148°
2026-04-22 20:04 55.95173 -3.36330 103 ft 1 kts 148°
2026-04-22 20:04 55.95160 -3.36315 103 ft 3 kts 148°
2026-04-22 20:04 55.95137 -3.36308 104 ft 4 kts 194°
2026-04-22 20:04 55.95116 -3.36334 104 ft 0 kts 237°
2026-04-22 20:05 55.95108 -3.36357 105 ft 5 kts 237°
2026-04-22 20:05 55.95072 -3.36404 107 ft 8 kts 177°
2026-04-22 20:05 55.95004 -3.36329 107 ft 13 kts 147°
2026-04-22 20:05 55.94965 -3.36286 107 ft 0 kts 148°